CW4611 Weather Reports


time (UTC)temp
F
wind
direction
speed
knots
gust
knots
rain 1hr
in
rain 24hr
in
rain mn
in
humidity
%
barometer
mb
20260509064604 46 10 5.2 8.7 0.00 0.00 0.00 50 1017.3
20260509064104 45 9 3.5 7.0 0.00 0.00 0.00 51 1017.3
20260509063604 45 9 1.7 2.6 0.00 0.00 0.00 52 1017.3
20260509063104 45 9 0.9 8.7 0.00 0.00 0.00 51 1017.3
20260509061605 46 9 1.7 4.3 0.00 0.00 0.00 56 1017.3
20260509061106 46 9 0.9 7.8 0.00 0.00 0.00 51 1017.4
20260509060604 46 11 7.8 10.4 0.00 0.00 0.00 50 1017.4
20260509060104 46 10 5.2 10.4 0.00 0.00 0.00 50 1017.4
20260509054104 47 9 1.7 4.3 0.00 0.00 0.00 50 1017.4
20260509053604 47 9 2.6 5.2 0.00 0.00 0.00 48 1017.4
20260509053105 47 9 4.3 8.7 0.00 0.00 0.00 48 1017.4
20260509050604 49 9 2.6 7.8 0.00 0.00 0.00 45 1017.5
20260509050104 49 10 2.6 10.4 0.00 0.00 0.00 45 1017.5
20260509043604 49 9 5.2 7.8 0.00 0.00 0.00 45 1017.4
20260509043104 49 9 2.6 4.3 0.00 0.00 0.00 45 1017.4
20260509041604 49 9 2.6 5.2 0.00 0.00 0.00 44 1017.2
20260509040605 50 9 2.6 6.1 0.00 0.00 0.00 43 1017.1
20260509040104 50 10 4.3 8.7 0.00 0.00 0.00 43 1017.1
20260509034604 50 9 3.5 6.1 0.00 0.00 0.00 43 1017.0
20260509034104 50 9 1.7 6.1 0.00 0.00 0.00 44 1016.9
20260509033604 50 9 1.7 2.6 0.00 0.00 0.00 46 1016.8
20260509031604 51 9 1.7 2.6 0.00 0.00 0.00 44 1016.5
20260509031104 52 9 2.6 2.6 0.00 0.00 0.00 43 1016.5
20260509030604 52 9 2.6 2.6 0.00 0.00 0.00 42 1016.4
20260509030104 53 9 1.7 2.6 0.00 0.00 0.00 40 1016.5
20260509024105 55 5 0.0 1.7 0.00 0.00 0.00 36 1016.1
20260509023104 55 10 1.7 4.3 0.00 0.00 0.00 36 1015.8
20260509021604 56 15 0.9 2.6 0.00 0.00 0.00 34 1015.9
20260509020604 57 15 0.9 2.6 0.00 0.00 0.00 33 1015.9
20260509020104 57 15 1.7 6.1 0.00 0.00 0.00 33 1015.9
20260509014604 58 14 1.7 7.8 0.00 0.00 0.00 32 1015.9
20260509013604 58 12 2.6 7.8 0.00 0.00 0.00 32 1015.8
20260509013104 59 15 1.7 8.7 0.00 0.00 0.00 31 1015.9
20260509011604 59 15 3.5 8.7 0.00 0.00 0.00 30 1016.0
20260509011104 60 14 1.7 7.8 0.00 0.00 0.00 30 1016.1
20260509010604 60 14 3.5 7.0 0.00 0.00 0.00 29 1016.1
20260509010104 60 14 3.5 12.2 0.00 0.00 0.00 29 1016.0
20260509004603 61 14 1.7 7.8 0.00 0.00 0.00 30 1015.9
20260509004104 61 11 3.5 8.7 0.00 0.00 0.00 30 1016.1
20260509003604 61 15 4.3 8.7 0.00 0.00 0.00 28 1016.1
20260509003104 62 15 4.3 10.4 0.00 0.00 0.00 28 1016.2
20260509001604 62 9 1.7 8.7 0.00 0.00 0.00 28 1016.2
20260509001104 62 14 1.7 10.4 0.00 0.00 0.00 28 1016.3
20260509000604 62 14 2.6 10.4 0.00 0.00 0.00 28 1016.4
20260509000104 62 11 5.2 14.8 0.00 0.00 0.00 27 1016.5
20260508234604 64 11 2.6 8.7 0.00 0.00 0.00 27 1016.5
20260508234104 64 15 2.6 10.4 0.00 0.00 0.00 27 1016.4
20260508233603 64 14 2.6 8.7 0.00 0.00 0.00 27 1016.5
20260508233104 64 14 2.6 12.2 0.00 0.00 0.00 26 1016.5
20260508231604 63 14 4.3 8.7 0.00 0.00 0.00 26 1016.7
20260508231104 64 14 5.2 15.6 0.00 0.00 0.00 25 1016.6
20260508230604 64 14 5.2 10.4 0.00 0.00 0.00 26 1016.7
20260508230104 64 15 5.2 13.0 0.00 0.00 0.00 25 1016.7
20260508224603 64 13 4.3 11.3 0.00 0.00 0.00 27 1016.5
20260508224103 64 13 4.3 14.8 0.00 0.00 0.00 25 1016.7
20260508223605 65 14 5.2 10.4 0.00 0.00 0.00 25 1016.7
20260508221603 65 14 4.3 13.0 0.00 0.00 0.00 25 1016.6
20260508221104 65 13 5.2 11.3 0.00 0.00 0.00 25 1016.8
20260508220604 65 13 4.3 12.2 0.00 0.00 0.00 26 1016.6
20260508220105 65 13 5.2 13.9 0.00 0.00 0.00 24 1016.7
20260508214605 65 14 7.8 15.6 0.00 0.00 0.00 24 1016.8
20260508214105 65 13 5.2 17.4 0.00 0.00 0.00 26 1016.8
20260508213605 66 13 5.2 15.6 0.00 0.00 0.00 26 1016.7
20260508213105 65 14 5.2 15.6 0.00 0.00 0.00 26 1016.7
20260508211605 65 13 6.1 14.8 0.00 0.00 0.00 27 1017.0
20260508210605 66 12 4.3 15.6 0.00 0.00 0.00 26 1016.8
20260508210105 66 13 4.3 13.0 0.00 0.00 0.00 26 1016.9
20260508204106 66 14 6.1 13.9 0.00 0.00 0.00 27 1016.7
20260508203605 66 13 3.5 11.3 0.00 0.00 0.00 27 1016.8
20260508203105 65 12 7.0 15.6 0.00 0.00 0.00 27 1016.7
20260508201605 65 13 5.2 10.4 0.00 0.00 0.00 26 1016.7
20260508201105 65 10 4.3 12.2 0.00 0.00 0.00 28 1016.7
20260508200605 65 12 4.3 13.9 0.00 0.00 0.00 28 1016.6
20260508200105 65 13 4.3 19.1 0.00 0.00 0.00 28 1016.6
20260508194105 66 14 5.2 12.2 0.00 0.00 0.00 31 1016.8
20260508193605 66 11 4.3 11.3 0.00 0.00 0.00 28 1016.6
20260508193105 66 13 5.2 13.9 0.00 0.00 0.00 27 1016.8
20260508191105 66 13 6.1 14.8 0.00 0.00 0.00 30 1016.7
20260508190605 65 13 4.3 14.8 0.00 0.00 0.00 30 1016.7
20260508190105 65 13 4.3 13.9 0.00 0.00 0.00 31 1016.8
20260508184605 65 13 5.2 13.0 0.00 0.00 0.00 30 1016.8
20260508184105 65 13 5.2 17.4 0.00 0.00 0.00 31 1016.8
20260508183605 65 12 4.3 11.3 0.00 0.00 0.00 30 1016.9
20260508183105 65 12 4.3 11.3 0.00 0.00 0.00 31 1017.0
20260508181604 64 13 4.3 13.0 0.00 0.00 0.00 31 1017.2
20260508180604 63 14 5.2 13.9 0.00 0.00 0.00 31 1017.3
20260508180105 63 14 7.0 14.8 0.00 0.00 0.00 30 1017.6
20260508174605 61 14 3.5 8.7 0.00 0.00 0.00 34 1017.7
20260508174105 61 14 5.2 8.7 0.00 0.00 0.00 32 1017.8
20260508173105 60 14 4.3 12.2 0.00 0.00 0.00 30 1017.9
20260508171605 59 12 4.3 10.4 0.00 0.00 0.00 33 1018.1
20260508171105 59 14 5.2 12.2 0.00 0.00 0.00 31 1018.1
20260508170105 60 12 4.3 11.3 0.00 0.00 0.00 30 1018.2
20260508164605 59 13 4.3 10.4 0.00 0.00 0.00 33 1018.3
20260508164105 59 14 4.3 10.4 0.00 0.00 0.00 31 1018.3
20260508163604 59 11 2.6 7.8 0.00 0.00 0.00 32 1018.2
20260508161605 58 14 4.3 14.8 0.00 0.00 0.00 33 1018.2
20260508161105 58 13 3.5 6.1 0.00 0.00 0.00 34 1018.1
20260508160605 58 14 2.6 7.0 0.00 0.00 0.00 33 1018.1
20260508160105 57 12 4.3 11.3 0.00 0.00 0.00 34 1018.3
20260508154605 58 14 2.6 7.8 0.00 0.00 0.00 36 1018.2
20260508154105 57 13 1.7 8.7 0.00 0.00 0.00 36 1018.2
20260508153604 57 14 5.2 8.7 0.00 0.00 0.00 34 1018.1
20260508153105 57 12 2.6 6.1 0.00 0.00 0.00 39 1018.0
20260508151605 54 14 2.6 5.2 0.00 0.00 0.00 47 1018.1
20260508151104 53 13 1.7 2.6 0.00 0.00 0.00 49 1018.2
20260508150604 52 13 1.7 4.3 0.00 0.00 0.00 49 1018.3
20260508150105 51 13 1.7 2.6 0.00 0.00 0.00 49 1018.5
20260508144604 49 11 1.7 2.6 0.00 0.00 0.00 51 1018.5
20260508143604 48 11 0.9 2.6 0.00 0.00 0.00 53 1018.6
20260508143104 48 11 1.7 2.6 0.00 0.00 0.00 52 1018.7
20260508141605 46 12 0.9 1.7 0.00 0.00 0.00 56 1018.6
20260508141105 46 12 0.0 1.7 0.00 0.00 0.00 59 1018.6
20260508140605 46 14 0.0 1.7 0.00 0.00 0.00 60 1018.6
20260508140104 45 14 0.0 0.9 0.00 0.00 0.00 61 1018.7
20260508134604 44 14 0.9 2.6 0.00 0.00 0.00 59 1018.7
20260508134104 45 15 0.9 1.7 0.00 0.00 0.00 59 1018.6
20260508133604 45 9 0.0 0.9 0.00 0.00 0.00 61 1018.6
20260508133105 45 9 0.9 2.6 0.00 0.00 0.00 60 1018.5
20260508131605 43 9 0.9 2.6 0.00 0.00 0.00 62 1018.4
20260508131104 42 9 0.9 2.6 0.00 0.00 0.00 61 1018.4
20260508130605 41 9 1.7 5.2 0.00 0.00 0.00 60 1018.4
20260508130105 40 10 2.6 8.7 0.00 0.00 0.00 61 1018.4
20260508124605 39 9 0.9 1.7 0.00 0.00 0.00 65 1018.2
20260508124105 39 9 1.7 2.6 0.00 0.00 0.00 64 1018.2
20260508123604 39 9 0.0 0.9 0.00 0.00 0.00 65 1018.2
20260508123105 39 9 0.9 1.7 0.00 0.00 0.00 63 1018.2
20260508121605 39 11 0.0 1.7 0.00 0.00 0.00 63 1018.2
20260508121105 39 12 0.0 1.7 0.00 0.00 0.00 63 1018.1
20260508120104 40 9 0.0 2.6 0.00 0.00 0.00 63 1018.2
20260508114604 40 3 0.9 2.6 0.00 0.00 0.00 65 1018.2
20260508114104 39 10 0.9 4.3 0.00 0.00 0.00 65 1018.2
20260508113604 39 9 1.7 2.6 0.00 0.00 0.00 64 1018.2
20260508113105 39 9 1.7 2.6 0.00 0.00 0.00 67 1018.1
20260508111605 39 8 0.0 0.9 0.00 0.00 0.00 65 1018.3
20260508110604 40 0 0.9 2.6 0.00 0.00 0.00 66 1018.2
20260508104605 40 9 0.9 1.7 0.00 0.00 0.00 65 1018.1
20260508104104 40 9 0.9 2.6 0.00 0.00 0.00 64 1018.1
20260508103605 40 9 0.0 0.0 0.00 0.00 0.00 64 1018.1
20260508103105 40 9 0.0 2.6 0.00 0.00 0.00 64 1018.1
20260508101605 40 9 0.9 2.6 0.00 0.00 0.00 66 1018.0
20260508101105 40 9 1.7 2.6 0.00 0.00 0.00 66 1017.9
20260508100605 40 10 1.7 5.2 0.00 0.00 0.00 66 1018.0
20260508100104 40 9 0.9 2.6 0.00 0.00 0.00 67 1018.0
20260508094105 40 9 2.6 4.3 0.00 0.00 0.00 66 1018.0
20260508093605 41 9 1.7 4.3 0.00 0.00 0.00 66 1018.0
20260508093104 41 9 1.7 4.3 0.00 0.00 0.00 64 1018.0
20260508090604 41 9 1.7 2.6 0.00 0.00 0.00 66 1018.0
20260508090105 41 9 2.6 4.3 0.00 0.00 0.00 65 1017.9
20260508083605 40 9 0.9 1.7 0.00 0.00 0.00 65 1018.1
20260508083105 41 9 0.9 2.6 0.00 0.00 0.00 65 1018.1
20260508080605 41 9 1.7 2.6 0.00 0.00 0.00 65 1018.1
20260508080105 41 9 0.9 8.7 0.00 0.00 0.00 66 1018.2
20260508074604 42 10 2.6 5.2 0.00 0.00 0.00 65 1018.3
20260508073605 41 9 1.7 2.6 0.00 0.00 0.00 65 1018.3
20260508073104 42 9 2.6 4.3 0.00 0.00 0.00 63 1018.4
20260508071105 42 9 1.7 2.6 0.00 0.00 0.00 63 1018.5
20260508070105 42 11 0.9 2.6 0.00 0.00 0.00 61 1018.5